Fredericksburg, VA

9:47 PM EST on December 04, 2016 (GMT -0500)
Stafford

Weather History for KRMN - April, 2014

Change the Weather History Date:

Friday, April 11, 2014

  Actual Average (KNYG) Record (KNYG)
Temperature  
Mean Temperature 70 °F -  
Max Temperature 81 °F 63 °F 84 °F (2011)
Min Temperature 60 °F 43 °F 32 °F (2007)
Cooling Degree Days 6    
Growing Degree Days 20 (Base 50)    
Moisture  
Dew Point 41 °F    
Average Humidity 37    
Maximum Humidity 74    
Minimum Humidity 22    
Precipitation  
Precipitation 0.00 in - - ()
Sea Level Pressure  
Sea Level Pressure 30.06 in    
Wind  
Wind Speed 6 mph (SW)    
Max Wind Speed 18 mph    
Max Gust Speed 28 mph    
Visibility 10 miles    
Events      
Averages and records for this station are not official NWS values.
T = Trace of Precipitation, MM = Missing Value Source: NWS Daily Summary

Daily Weather History Graph

Daily Weather History Graph

Search for Another Location

Airport or City:

Trip Planner

Search our weather history database for the weather conditions in past years. The results will help you decide how hot, cold, wet, or windy it might be!

Date:

Astronomy

Apr. 11, 2014 Rise Set
Actual Time 6:39 AM EDT 7:42 PM EDT
Civil Twilight 6:12 AM EDT 8:09 PM EDT
Nautical Twilight 5:40 AM EDT 8:42 PM EDT
Astronomical Twilight 5:06 AM EDT 9:15 PM EDT
Moon 4:23 PM EDT (4/11) 4:31 AM EDT (4/11)
Length of Visible Light 13h 57m
Length of Day
13h 02m
Waxing Gibbous, 87% of the Moon is Illuminated
Apr 11
Waxing Gibbous
Apr 15
Full
Apr 22
Last Quarter
Apr 29
New
May 6
First Quarter

Hourly Weather History & Observations

Time (EDT) Temp. Dew Point Humidity Pressure Visibility Wind Dir Wind Speed Gust Speed Precip Events Conditions
12:15 AM 63.7 °F 36.1 °F 36% 30.10 in 10.0 mi South 5.8 mph - N/A   Clear
12:35 AM 64.4 °F 36.3 °F 35% 30.09 in 10.0 mi SSW 5.8 mph - N/A   Clear
12:55 AM 63.9 °F 36.5 °F 36% 30.09 in 10.0 mi SSW 6.9 mph - N/A   Clear
1:15 AM 63.5 °F 36.3 °F 36% 30.09 in 10.0 mi South 3.5 mph - N/A   Clear
1:35 AM 63.0 °F 36.0 °F 37% 30.09 in 10.0 mi South 5.8 mph - N/A   Clear
1:55 AM 63.0 °F 35.8 °F 36% 30.08 in 10.0 mi SSW 8.1 mph - N/A   Clear
2:15 AM 63.7 °F 35.6 °F 35% 30.08 in 10.0 mi SSW 4.6 mph - N/A   Clear
2:35 AM 63.9 °F 35.2 °F 35% 30.07 in 10.0 mi SSW 10.4 mph - N/A   Clear
2:55 AM 63.9 °F 35.2 °F 35% 30.07 in 10.0 mi SW 6.9 mph - N/A   Clear
3:15 AM 63.7 °F 35.4 °F 35% 30.07 in 10.0 mi SW 9.2 mph - N/A   Clear
3:35 AM 63.9 °F 35.4 °F 35% 30.07 in 10.0 mi SW 6.9 mph - N/A   Clear
3:55 AM 63.5 °F 35.4 °F 35% 30.07 in 10.0 mi SW 8.1 mph - N/A   Clear
4:15 AM 63.1 °F 35.8 °F 36% 30.08 in 10.0 mi SW 4.6 mph - N/A   Clear
4:35 AM 63.0 °F 36.0 °F 37% 30.08 in 10.0 mi SW 6.9 mph - N/A   Clear
4:55 AM 62.1 °F 36.1 °F 38% 30.08 in 10.0 mi SW 3.5 mph - N/A   Clear
5:15 AM 61.2 °F 36.0 °F 39% 30.09 in 10.0 mi Calm Calm - N/A   Clear
5:35 AM 61.2 °F 36.7 °F 40% 30.09 in 10.0 mi SSW 4.6 mph - N/A   Clear
5:55 AM 60.4 °F 36.7 °F 41% 30.10 in 10.0 mi SSW 4.6 mph - N/A   Clear
6:15 AM 60.4 °F 36.7 °F 41% 30.10 in 10.0 mi SSW 4.6 mph - N/A   Clear
6:35 AM 60.4 °F 36.9 °F 42% 30.10 in 10.0 mi SSW 5.8 mph - N/A   Clear
6:55 AM 60.3 °F 37.0 °F 42% 30.11 in 10.0 mi SSW 4.6 mph - N/A   Clear
7:35 AM 60.8 °F 38.1 °F 43% 30.12 in 10.0 mi SSW 4.6 mph - N/A   Clear
7:55 AM 61.2 °F 38.1 °F 42% 30.12 in 10.0 mi SW 3.5 mph - N/A   Clear
8:15 AM 62.1 °F 39.2 °F 43% 30.13 in 10.0 mi SSW 5.8 mph - N/A   Clear
8:35 AM 63.0 °F 39.6 °F 42% 30.13 in 10.0 mi SSW 5.8 mph - N/A   Clear
8:55 AM 63.5 °F 40.3 °F 43% 30.13 in 10.0 mi SSW 3.5 mph - N/A   Clear
9:15 AM 64.8 °F 39.7 °F 40% 30.12 in 10.0 mi SW 5.8 mph - N/A   Clear
9:35 AM 66.2 °F 41.5 °F 41% 30.12 in 10.0 mi SW 3.5 mph - N/A   Clear
10:15 AM 70.3 °F 41.4 °F 35% 30.12 in 10.0 mi SW 3.5 mph - N/A   Clear
10:35 AM 70.3 °F 41.0 °F 34% 30.12 in 10.0 mi SSW 5.8 mph - N/A   Clear
10:55 AM 72.0 °F 41.9 °F 34% 30.12 in 10.0 mi South 5.8 mph - N/A   Clear
11:15 AM 73.0 °F 41.7 °F 32% 30.11 in 10.0 mi SW 6.9 mph 17.3 mph N/A   Clear
11:35 AM 72.5 °F 40.8 °F 32% 30.10 in 10.0 mi SSW 6.9 mph - N/A   Clear
11:55 AM 73.4 °F 40.8 °F 31% 30.09 in 10.0 mi SSW 6.9 mph - N/A   Clear
12:15 PM 74.1 °F 41.5 °F 31% 30.08 in 10.0 mi South 8.1 mph - N/A   Clear
12:35 PM 76.1 °F 41.5 °F 29% 30.07 in 10.0 mi WSW 8.1 mph - N/A   Clear
12:55 PM 75.2 °F 42.3 °F 31% 30.06 in 10.0 mi WSW 6.9 mph - N/A   Clear
1:15 PM 77.0 °F 43.3 °F 30% 30.05 in 10.0 mi SSW 9.2 mph - N/A   Clear
1:35 PM 76.6 °F 41.2 °F 28% 30.04 in 10.0 mi SW 9.2 mph - N/A   Clear
1:55 PM 77.9 °F 42.4 °F 28% 30.03 in 10.0 mi SSW 8.1 mph - N/A   Clear
2:15 PM 79.9 °F 43.2 °F 27% 30.03 in 10.0 mi SSW 11.5 mph 18.4 mph N/A   Clear
2:35 PM 78.6 °F 41.9 °F 27% 30.02 in 10.0 mi SSW 6.9 mph 24.2 mph N/A   Clear
2:55 PM 80.4 °F 42.6 °F 26% 30.01 in 10.0 mi SSW 11.5 mph 16.1 mph N/A   Clear
3:15 PM 80.4 °F 41.4 °F 25% 30.01 in 10.0 mi SW 12.7 mph 19.6 mph N/A   Clear
3:35 PM 80.6 °F 40.3 °F 24% 30.00 in 10.0 mi SW 13.8 mph 23.0 mph N/A   Clear
3:55 PM 80.4 °F 41.2 °F 25% 29.98 in 10.0 mi SW 8.1 mph 18.4 mph N/A   Clear
4:15 PM 81.1 °F 40.3 °F 23% 29.98 in 7.0 mi SSW 10.4 mph - N/A   Clear
4:35 PM 81.1 °F 39.4 °F 23% 29.97 in 10.0 mi SSW 12.7 mph 23.0 mph N/A   Clear
4:55 PM 80.6 °F 39.4 °F 23% 29.97 in 10.0 mi SW 11.5 mph 20.7 mph N/A   Clear
5:15 PM 81.1 °F 39.9 °F 23% 29.97 in 10.0 mi SSW 13.8 mph 21.9 mph N/A   Clear
5:35 PM 81.0 °F 40.5 °F 24% 29.96 in 10.0 mi South 13.8 mph 20.7 mph N/A   Clear
5:55 PM 80.6 °F 38.7 °F 22% 29.95 in 10.0 mi SSW 12.7 mph 21.9 mph N/A   Clear
6:15 PM 80.6 °F 38.5 °F 22% 29.96 in 10.0 mi SSW 15.0 mph 21.9 mph N/A   Clear
6:35 PM 79.7 °F 38.5 °F 23% 29.97 in 10.0 mi SSW 13.8 mph 21.9 mph N/A   Clear
6:55 PM 78.8 °F 37.9 °F 23% 29.97 in 10.0 mi SSW 12.7 mph 21.9 mph N/A   Clear
7:15 PM 77.5 °F 38.7 °F 25% 29.98 in 10.0 mi Calm Calm - N/A   Scattered Clouds
7:35 PM 73.9 °F 44.2 °F 35% 30.02 in 10.0 mi NNW 18.4 mph 27.6 mph N/A   Mostly Cloudy
7:55 PM 71.1 °F 45.3 °F 40% 30.03 in 10.0 mi North 12.7 mph - N/A   Mostly Cloudy
8:15 PM 69.3 °F 46.6 °F 44% 30.05 in 10.0 mi NNW 8.1 mph - N/A   Scattered Clouds
8:35 PM 69.8 °F 47.3 °F 45% 30.06 in 10.0 mi North 4.6 mph - N/A   Scattered Clouds
8:55 PM 68.5 °F 48.0 °F 48% 30.08 in 10.0 mi North 3.5 mph - N/A   Overcast
9:15 PM 68.7 °F 48.6 °F 49% 30.08 in 10.0 mi NNE 4.6 mph - N/A   Overcast
9:35 PM 68.0 °F 50.4 °F 53% 30.08 in 10.0 mi Calm Calm - N/A   Overcast
9:55 PM 65.8 °F 51.6 °F 60% 30.08 in 10.0 mi North 3.5 mph - N/A   Mostly Cloudy
10:15 PM 63.5 °F 52.2 °F 67% 30.08 in 10.0 mi Calm Calm - N/A   Mostly Cloudy
10:35 PM 63.5 °F 51.8 °F 66% 30.09 in 10.0 mi Calm Calm - N/A   Scattered Clouds
10:55 PM 63.0 °F 52.0 °F 67% 30.09 in 10.0 mi Calm Calm - N/A   Scattered Clouds
11:15 PM 63.1 °F 51.8 °F 66% 30.09 in 10.0 mi Calm Calm - N/A   Scattered Clouds
11:35 PM 61.9 °F 51.8 °F 69% 30.09 in 10.0 mi Calm Calm - N/A   Scattered Clouds
11:55 PM 60.1 °F 51.8 °F 74% 30.10 in 10.0 mi Calm Calm - N/A   Mostly Cloudy